Lid_Strength_Index
5 4 4 4 5 6 4 2 6 1 1 5 5 7 5 8 5 5 5 5 6 7 7 8 7 8 7 5 5 7 6 8 12 9 6 6 6 8 8 11 12 13 16 16
5 4 4 5 5 5 5 4 4 1 2 7 7 5 6 6 6 6 6 6 5 5 7 9 7 7 5 5 6 7 7 9 12 10 8 6 8 7 8 7 9 12 13 12
5 4 4 4 5 5 5 4 6 4 4 4 6 7 7 7 6 6 5 6 5 6 7 6 8 7 6 5 5 4 4 8 10 12 10 8 9 11 11 8 11 10 10 9
5 5 4 4 5 5 4 3 5 5 7 6 6 6 6 7 7 6 6 6 6 7 8 8 8 7 6 5 6 5 6 10 9 8 8 7 8 8 8 9 8 10 9 9
5 5 5 4 5 6 3 5 6 5 6 6 7 8 8 8 7 7 7 7 6 6 8 8 9 7 7 7 6 6 5 10 9 10 8 8 9 8 8 8 8 8 8 8
5 5 5 5 5 5 4 3 3 6 7 6 7 7 7 7 7 6 6 7 6 7 6 6 5 5 5 6 7 7 7 9 10 13 8 8 11 8 8 8 7 7 9 7
6 6 5 5 5 5 4 4 6 7 8 7 7 7 8 8 8 8 7 7 7 6 5 5 5 6 6 6 6 5 8 9 9 12 10 16 8 6 6 7 6 6 6 6
6 6 5 5 5 5 6 4 5 7 9 7 7 7 8 7 7 8 8 7 6 5 6 9 10 10 9 8 7 7 6 8 11 13 13 10 8 7 7 8 8 5 7 7
6 6 6 5 5 5 6 4 4 7 9 8 8 9 8 9 8 8 7 6 5 6 9 10 13 13 10 10 8 6 6 7 10 11 14 15 9 6 5 7 10 7 6 7
7 8 8 7 7 7 7 6 4 7 9 7 7 9 9 7 8 9 7 7 8 7 10 12 12 12 9 11 10 10 9 10 11 12 13 10 6 5 5 15 14 6 6 6
7 7 8 7 7 7 8 6 4 8 9 8 7 7 9 8 8 10 7 8 8 9 11 11 11 11 10 10 8 9 10 12 12 11 13 14 6 6 9 8 5 5 5 5
7 7 7 7 7 7 8 8 5 5 9 8 7 6 6 6 6 8 7 8 8 7 10 9 9 10 9 9 11 6 10 8 10 11 11 6 5 6 5 5 5 5 5 4
7 7 7 7 7 7 7 7 6 7 9 9 8 8 6 5 6 5 9 7 6 6 5 9 9 11 9 11 10 8 7 5 9 8 7 6 5 5 5 5 6 4 3 3
6 6 7 6 6 6 6 7 6 6 8 11 8 5 6 5 5 6 5 6 5 5 6 8 9 11 8 10 9 9 8 7 7 8 6 5 6 5 4 4 4 4 3 3
6 6 6 6 6 6 6 5 5 5 8 10 9 6 6 6 5 6 5 5 6 7 8 9 10 9 8 8 8 10 8 8 9 9 5 6 5 4 4 5 5 5 4 5
6 5 6 6 6 6 6 8 5 4 5 9 11 6 7 5 5 5 6 5 6 6 8 8 8 6 7 10 10 7 6 4 4 6 4 4 4 3 4 4 4 4 4 4
6 6 6 6 6 6 8 9 6 5 4 8 10 9 7 5 4 5 5 4 6 6 7 7 7 7 5 7 9 6 5 4 4 3 3 4 4 4 3 3 2 2 3 3
5 5 5 5 5 5 7 5 6 5 6 7 10 9 7 4 6 7 4 5 5 5 6 6 6 5 5 8 6 5 4 4 4 3 3 3 3 3 3 2 2 3 3 3
4 5 4 5 6 7 5 4 4 3 5 8 8 10 9 4 6 5 5 4 7 5 6 6 5 7 9 6 5 5 4 4 4 3 3 3 3 3 3 3 3 3 3 3
4 4 6 8 5 3 3 5 6 6 6 6 8 6 8 5 6 6 6 5 7 8 6 5 7 8 5 4 4 4 4 3 3 5 5 4 4 4 4 3 3 3 3 3
4 6 6 3 2 4 5 8 8 7 9 7 6 6 7 4 7 7 5 7 7 10 8 8 8 8 6 5 4 4 4 3 3 4 3 4 4 4 4 3 3 3 2 3
4 3 2 3 5 7 9 8 7 8 9 6 6 5 4 4 3 6 5 7 7 10 5 8 10 7 4 5 5 4 4 3 3 3 3 3 3 3 3 3 3 2 2 2
2 4 6 6 6 10 11 12 9 9 6 5 4 6 4 4 5 7 7 10 10 5 9 10 8 6 5 4 4 4 3 3 3 3 3 3 4 3 3 3 2 2 2 2
4 7 10 8 10 8 8 7 6 5 5 5 5 6 7 5 7 7 10 8 7 10 11 10 9 6 5 4 4 4 4 4 4 4 3 4 3 4 3 3 2 2 3 2
5 5 10 8 5 5 4 4 4 4 4 5 5 5 6 7 9 8 8 10 12 10 10 9 7 6 5 5 4 4 5 4 4 4 4 4 3 3 3 3 2 3 3 3
4 4 6 5 6 6 5 5 5 3 4 3 4 7 9 10 8 10 11 10 11 9 8 7 6 6 5 4 4 4 3 3 4 4 3 3 4 4 4 3 3 2 2 3
5 5 4 4 5 5 5 4 4 3 4 6 6 10 10 7 10 10 8 9 7 6 5 4 4 4 4 4 4 4 4 4 3 4 4 4 4 3 3 4 3 3 3 2